Tracking 28052 objects as of 25-Sep-2023
HD Live streaming from Space Station
objects crossing your sky now

STARLINK-3743

Track STARLINK-3743 now!
10-day predictions
STARLINK-3743 is classified as:


NORAD ID: 52118
Int'l Code: 2022-029AG
Perigee: 546.0 km
Apogee: 547.7 km
Inclination: 53.2 °
Period: 95.4 minutes
Semi major axis: 6917 km
RCS: Unknown
Launch date: March 19, 2022
Source: United States (US)
Launch site: AIR FORCE EASTERN TEST RANGE (AFETR)
Your satellite tracking list
Your tracking list is empty




NASA's NSSDC Master Catalog

Two Line Element Set (TLE):
1 52118U 22029AG  23267.91243854  .00000600  00000-0  55785-4 0  9998
2 52118  53.2193 144.9104 0001251  80.6164 279.4970 15.08845494 85402
Source of the keplerian elements: AFSPC